Location: Prague
(50.0830°N, 14.4670°E)
Time: 20:42:56
(UTC+01:00)

SEEDS - Visible Passes

Search period start: 05 December 2021 00:00
Search period end: 15 December 2021 00:00
Orbit: 582 x 603 km, 97.6° (Epoch: 05 December)

Date Brightness Start Highest point End Pass type
(mag) Time Alt. Az. Time Alt. Az. Time Alt. Az.
05 Dec ? 05:28:44 10° N 05:28:53 11° N 05:28:53 11° N visible
06 Dec ? 16:33:17 10° SSW 16:36:41 24° W 16:40:06 10° NW visible
07 Dec ? 16:42:31 10° SW 16:45:35 20° W 16:48:41 10° NW visible
08 Dec ? 16:51:50 10° SW 16:54:30 16° W 16:57:10 10° NW visible
09 Dec ? 17:01:21 10° WSW 17:03:26 13° W 17:05:32 10° WNW visible
10 Dec ? 17:11:13 10° WSW 17:12:22 11° W 17:13:31 10° WNW visible
